Change the Weather History Date:

Sunday, January 13, 2013

  Actual Average Record
Temperature  
Mean Temperature 15 °F 27 °F  
Max Temperature 21 °F 33 °F 55 °F (1991)
Min Temperature 9 °F 22 °F 2 °F (1997)
Degree Days  
Heating Degree Days 50 38  
Month to date heating degree days 541 503  
Since 1 July heating degree days 3204 3601  
Cooling Degree Days 0 0  
Month to date cooling degree days 0 0  
Year to date cooling degree days 0 0  
Moisture  
Dew Point 11 °F    
Average Humidity 75    
Maximum Humidity 81    
Minimum Humidity 65    
Precipitation  
Precipitation T in 0.07 in 0.33 in (2011)
Month to date precipitation 0.87 0.91  
Year to date precipitation 0.87 0.91  
Snow  
Snow T in 0.50 in - ()
Month to date snowfall 10.5 7.7  
Since 1 July snowfall 40.8 32.6  
Snow Depth 5.00 in    
Sea Level Pressure  
Sea Level Pressure 30.47 in    
Wind  
Wind Speed 4 mph (WNW)    
Max Wind Speed 13 mph    
Max Gust Speed -    
Visibility 10 miles    
Events      
T = Trace of Precipitation, MM = Missing Value Source: NWS Daily Summary

Daily Weather History Graph

Daily Weather History Graph

Search for Another Location

Airport or City:

Trip Planner

Search our weather history database for the weather conditions in past years. The results will help you decide how hot, cold, wet, or windy it might be!

Date:

Astronomy

Jan. 13, 2013 Rise Set
Actual Time 7:44 AM PST 4:35 PM PST
Civil Twilight 7:09 AM PST 5:09 PM PST
Nautical Twilight 6:31 AM PST 5:48 PM PST
Astronomical Twilight 5:54 AM PST 6:24 PM PST
Moon 8:34 AM PST (1/13) 7:33 PM PST (1/13)
Length of Visible Light 10h 00m
Length of Day
8h 50m
Waxing Crescent, 6% of the Moon is Illuminated
Jan 13
Waxing Crescent
Jan 18
First Quarter
Jan 26
Full
Feb 3
Last Quarter
Feb 9
New

Hourly Weather History & Observations

Time (PST) Temp. Windchill Dew Point Humidity Pressure Visibility Wind Dir Wind Speed Gust Speed Precip Events Conditions
12:55 AM 14.0 °F 3.9 °F 9.0 °F 80% 30.42 in 10.0 mi NW 6.9 mph - N/A   Partly Cloudy
1:55 AM 15.1 °F 3.3 °F 9.0 °F 77% 30.41 in 10.0 mi WSW 9.2 mph - N/A   Clear
2:55 AM 16.0 °F 2.3 °F 9.0 °F 74% 30.43 in 10.0 mi WNW 12.7 mph - N/A   Partly Cloudy
3:55 AM 14.0 °F 8.2 °F 9.0 °F 80% 30.43 in 10.0 mi NW 3.5 mph - N/A   Partly Cloudy
4:55 AM 14.0 °F 6.5 °F 9.0 °F 80% 30.43 in 10.0 mi NNW 4.6 mph - N/A   Clear
5:55 AM 12.0 °F 2.7 °F 7.0 °F 80% 30.45 in 10.0 mi West 5.8 mph - N/A   Clear
6:55 AM 14.0 °F 5.1 °F 8.1 °F 77% 30.48 in 10.0 mi West 5.8 mph - N/A   Clear
7:55 AM 12.9 °F 5.2 °F 8.1 °F 81% 30.50 in 10.0 mi WNW 4.6 mph - N/A   Clear
8:55 AM 12.9 °F 5.2 °F 8.1 °F 81% 30.52 in 10.0 mi WNW 4.6 mph - N/A   Clear
9:55 AM 16.0 °F - 9.0 °F 74% 30.52 in 10.0 mi Calm Calm - N/A   Clear
10:55 AM 17.1 °F 11.7 °F 10.0 °F 74% 30.51 in 10.0 mi West 3.5 mph - N/A   Clear
11:55 AM 19.9 °F - 12.0 °F 71% 30.49 in 10.0 mi Calm Calm - N/A   Clear
12:55 PM 21.9 °F - 12.9 °F 68% 30.48 in 10.0 mi Calm Calm - N/A   Clear
1:55 PM 21.9 °F - 12.9 °F 68% 30.47 in 10.0 mi Calm Calm - N/A   Clear
2:55 PM 23.0 °F - 12.9 °F 65% 30.47 in 10.0 mi Calm Calm - N/A   Clear
3:55 PM 23.0 °F - 12.9 °F 65% 30.46 in 10.0 mi Calm Calm - N/A   Mostly Cloudy
4:55 PM 21.0 °F - 12.0 °F 68% 30.48 in 10.0 mi Calm Calm - N/A   Clear
5:55 PM 19.9 °F - 12.0 °F 71% 30.49 in 10.0 mi Calm Calm - N/A   Scattered Clouds
6:55 PM 19.0 °F - 12.0 °F 74% 30.47 in 10.0 mi Calm Calm - N/A   Clear
7:55 PM 19.9 °F - 12.9 °F 74% 30.47 in 10.0 mi Calm Calm - N/A   Mostly Cloudy
8:55 PM 18.0 °F - 12.0 °F 78% 30.48 in 10.0 mi Calm Calm - N/A   Mostly Cloudy
9:55 PM 19.9 °F - 14.0 °F 78% 30.48 in 10.0 mi Calm Calm - N/A   Overcast
10:55 PM 19.9 °F - 14.0 °F 78% 30.47 in 10.0 mi Calm Calm - N/A   Overcast
11:55 PM 19.9 °F - 14.0 °F 78% 30.46 in 10.0 mi Calm Calm - N/A   Overcast